Total_Precipitation_Accumulation
0.03 0.05 0.10 0.10 0.12 0.15 0.18 0.23 0.28 0.39 0.31 0.31 0.46 0.72 0.84 0.84 0.87 1.01 1.21 1.22 1.24 1.35 1.75 2.23 2.75 3.24 3.94 4.90 5.90 6.36 6.24 5.65 5.11 4.68 4.34 4.13 3.79 3.49 3.36 3.05 2.69 2.67 2.67 2.71
0.05 0.07 0.06 0.07 0.08 0.12 0.17 0.25 0.29 0.36 0.30 0.34 0.49 0.79 0.97 1.06 1.12 1.05 1.13 1.25 1.19 1.36 1.81 2.33 2.92 3.30 3.65 4.21 5.02 5.43 5.17 4.59 3.92 3.64 3.60 3.60 3.53 3.13 2.89 2.81 2.78 2.48 2.50 2.59
0.06 0.07 0.05 0.05 0.06 0.13 0.18 0.22 0.28 0.34 0.31 0.40 0.55 1.03 1.32 1.30 1.05 0.86 0.79 0.95 1.00 1.11 1.61 2.34 2.89 3.17 3.44 3.69 3.72 3.89 3.84 3.42 3.11 3.03 3.04 3.09 3.26 3.03 2.72 2.63 2.58 2.35 2.26 2.24
0.04 0.05 0.04 0.05 0.07 0.11 0.18 0.15 0.16 0.23 0.34 0.57 0.64 1.44 1.71 1.41 1.17 0.95 0.80 0.81 0.89 1.05 1.46 2.20 2.51 2.64 2.69 2.77 2.59 2.65 2.81 2.74 2.72 2.63 2.63 2.53 2.42 2.43 2.33 2.33 2.30 2.28 2.17 2.10
0.05 0.04 0.04 0.05 0.07 0.11 0.16 0.13 0.14 0.22 0.38 0.58 0.82 1.35 1.80 1.56 1.35 1.02 0.78 0.74 0.90 0.95 1.17 1.50 1.63 1.77 1.83 1.88 1.91 2.14 2.49 2.62 2.54 2.45 2.55 2.57 2.28 2.16 2.11 2.16 2.30 2.26 2.16 2.07
0.06 0.06 0.05 0.05 0.07 0.09 0.13 0.17 0.23 0.39 0.58 1.03 1.08 1.26 1.70 1.51 1.20 0.84 0.69 0.69 0.63 0.68 0.87 1.06 1.16 1.25 1.32 1.36 1.48 1.74 2.18 2.39 2.28 2.27 2.31 2.27 2.22 2.20 2.14 2.09 2.14 2.12 2.08 2.15
0.11 0.10 0.10 0.09 0.10 0.13 0.13 0.19 0.48 0.92 1.38 1.53 0.99 1.16 1.52 1.15 0.83 0.63 0.52 0.53 0.55 0.69 0.78 0.91 1.11 1.18 1.13 1.10 1.23 1.40 1.71 1.85 1.83 1.93 2.08 2.15 2.21 2.18 2.04 1.98 1.94 1.91 1.76 1.86
0.16 0.18 0.14 0.11 0.09 0.12 0.16 0.18 0.37 0.67 0.82 0.97 0.94 1.40 1.54 0.90 0.66 0.55 0.49 0.46 0.58 0.67 0.67 0.75 0.89 0.91 0.92 0.99 1.06 1.20 1.35 1.43 1.51 1.62 1.83 2.01 2.03 2.00 1.96 2.09 1.97 1.81 1.61 1.56
0.08 0.09 0.08 0.07 0.08 0.10 0.14 0.15 0.17 0.24 0.35 0.70 1.11 1.38 1.26 0.84 0.60 0.52 0.48 0.43 0.53 0.55 0.51 0.57 0.68 0.74 0.78 0.95 1.05 1.09 1.19 1.28 1.38 1.46 1.72 1.89 1.90 1.84 1.88 1.98 1.89 1.71 1.72 1.61
0.04 0.05 0.07 0.07 0.08 0.11 0.12 0.13 0.14 0.19 0.37 0.69 1.11 1.50 1.42 1.09 0.77 0.66 0.52 0.42 0.48 0.48 0.48 0.55 0.61 0.69 0.69 0.72 0.88 0.99 1.06 1.23 1.39 1.47 1.52 1.56 1.70 1.67 1.66 1.62 1.60 1.68 1.72 1.67
0.04 0.04 0.05 0.08 0.10 0.13 0.13 0.11 0.12 0.15 0.22 0.49 0.97 1.25 0.93 0.80 0.64 0.63 0.58 0.53 0.52 0.55 0.57 0.57 0.65 0.65 0.63 0.63 0.78 0.91 1.00 1.13 1.24 1.27 1.31 1.40 1.49 1.46 1.42 1.42 1.41 1.53 1.57 1.61
0.04 0.06 0.06 0.10 0.12 0.11 0.11 0.09 0.11 0.16 0.20 0.27 0.58 0.79 0.54 0.55 0.53 0.58 0.61 0.64 0.68 0.73 0.73 0.72 0.75 0.71 0.71 0.73 0.77 0.87 0.87 0.93 1.02 1.09 1.17 1.22 1.34 1.35 1.34 1.37 1.50 1.57 1.55 1.49
0.05 0.06 0.08 0.21 0.26 0.19 0.11 0.10 0.13 0.14 0.16 0.21 0.49 0.75 0.52 0.51 0.60 0.64 0.63 0.72 0.74 0.68 0.73 0.88 0.89 0.74 0.74 0.76 0.79 0.81 0.80 0.85 0.92 0.99 1.02 1.08 1.22 1.38 1.46 1.50 1.54 1.63 1.64 1.58
0.06 0.06 0.07 0.20 0.28 0.26 0.20 0.16 0.16 0.16 0.18 0.21 0.32 0.53 0.51 0.48 0.59 0.72 0.67 0.68 0.74 0.70 0.72 0.88 0.98 0.77 0.69 0.70 0.72 0.74 0.75 0.74 0.77 0.92 1.05 1.12 1.30 1.50 1.59 1.61 1.64 1.65 1.67 1.65
0.07 0.07 0.06 0.07 0.14 0.20 0.22 0.18 0.17 0.14 0.14 0.21 0.29 0.44 0.57 0.66 0.67 0.64 0.67 0.71 0.68 0.73 0.75 0.75 0.80 0.73 0.70 0.71 0.71 0.73 0.78 0.81 0.83 1.01 1.17 1.34 1.50 1.57 1.63 1.70 1.73 1.79 1.82 1.72
0.10 0.10 0.08 0.09 0.14 0.16 0.17 0.20 0.15 0.11 0.11 0.17 0.29 0.47 0.59 0.59 0.68 0.71 0.66 0.64 0.69 0.77 0.81 0.90 0.90 0.86 0.89 0.86 0.85 0.87 0.90 0.99 1.13 1.28 1.43 1.53 1.61 1.67 1.63 1.62 1.65 1.82 1.89 1.95
0.18 0.18 0.18 0.17 0.19 0.21 0.24 0.22 0.16 0.14 0.17 0.24 0.32 0.47 0.59 0.67 0.80 0.89 0.88 0.80 0.81 0.93 0.96 1.07 1.13 1.09 1.11 1.07 1.07 1.18 1.17 1.28 1.46 1.60 1.77 1.80 1.77 1.81 1.79 1.83 1.86 1.88 2.01 2.14
0.27 0.29 0.26 0.25 0.30 0.42 0.34 0.25 0.23 0.23 0.24 0.28 0.39 0.54 0.67 0.80 0.85 0.99 1.08 1.04 0.95 0.92 1.00 1.13 1.20 1.19 1.14 1.16 1.23 1.46 1.59 1.62 1.74 1.85 1.96 2.05 2.07 2.14 2.21 2.31 2.32 2.36 2.40 2.44
0.29 0.39 0.40 0.39 0.48 0.48 0.41 0.36 0.32 0.35 0.46 0.46 0.56 0.80 0.94 0.97 1.15 1.34 1.24 1.11 1.09 1.12 1.12 1.28 1.28 1.25 1.25 1.42 1.49 1.56 1.68 1.72 1.89 2.07 2.22 2.30 2.36 2.40 2.44 2.47 2.59 2.74 2.87 2.91
0.35 0.38 0.49 0.47 0.58 0.66 0.63 0.49 0.45 0.59 1.10 0.92 0.90 0.97 0.97 1.07 1.52 1.55 1.19 1.06 1.13 1.16 1.28 1.43 1.47 1.43 1.51 1.76 1.82 1.91 1.98 2.03 2.11 2.21 2.38 2.58 2.70 2.74 2.73 2.80 2.95 3.13 3.30 3.32
0.62 0.63 0.59 0.56 0.65 0.74 0.68 0.56 0.64 1.21 1.66 1.35 1.23 1.18 1.21 1.41 1.47 1.45 1.29 1.14 1.10 1.14 1.25 1.41 1.48 1.48 1.55 1.76 1.94 2.21 2.35 2.40 2.40 2.46 2.59 2.73 2.84 2.97 3.03 3.13 3.23 3.40 3.54 3.52
0.91 0.95 0.92 0.89 1.05 1.12 0.74 0.75 1.14 1.49 1.31 1.42 1.57 1.60 1.54 1.53 1.35 1.27 1.25 1.29 1.26 1.24 1.29 1.37 1.50 1.56 1.67 1.80 2.04 2.26 2.44 2.60 2.69 2.70 2.84 2.89 2.90 2.81 2.80 3.06 3.27 3.50 3.72 3.68
1.14 1.18 1.21 1.27 1.40 1.25 0.98 1.07 1.14 1.12 1.27 1.38 1.47 1.62 1.67 1.63 1.62 1.49 1.45 1.46 1.41 1.32 1.25 1.28 1.36 1.48 1.59 1.69 1.90 2.28 2.42 2.48 2.56 2.67 2.73 2.84 2.88 2.91 2.98 3.18 3.36 3.56 3.68 3.63
1.20 1.17 1.30 1.46 1.51 1.39 1.30 1.32 1.35 1.35 1.40 1.42 1.44 1.54 1.62 1.66 1.74 1.66 1.52 1.38 1.27 1.21 1.19 1.25 1.34 1.45 1.55 1.51 1.65 1.86 2.09 2.22 2.26 2.29 2.34 2.34 2.47 2.64 2.89 3.20 3.30 3.36 3.42 3.45
1.34 1.29 1.45 1.82 1.93 1.89 1.76 1.74 1.71 1.62 1.65 1.72 1.65 1.61 1.65 1.56 1.55 1.55 1.37 1.25 1.22 1.24 1.19 1.25 1.41 1.42 1.46 1.52 1.53 1.58 1.64 1.85 2.01 2.01 2.02 2.13 2.24 2.43 2.65 2.89 3.05 3.03 3.07 3.28
1.64 1.58 1.64 1.95 1.99 2.18 2.15 1.93 1.84 1.72 1.76 1.77 1.74 1.64 1.58 1.53 1.50 1.43 1.33 1.26 1.23 1.22 1.22 1.25 1.33 1.32 1.31 1.40 1.48 1.51 1.61 1.78 1.85 1.80 1.80 1.85 1.91 2.07 2.25 2.41 2.56 2.58 2.37 2.43